period_start,C,m1,H,J0,J1,J2,J3,J4,J5,JA,JB,JC,JD,JJ,JK,JN,#
2017-01-20 00:03:22,0.41,6.19,0.00,16.12,20.26,23.75,14.91,52.00,1015.09,2054.69,1875.98,1882.83,2087.93,600.07,609.38,58.36,0000 0000 0000 0000 000000
2017-01-20 00:08:24,0.54,6.21,0.00,16.14,20.25,23.80,15.00,52.58,1014.70,2054.90,1871.86,1879.62,2084.30,600.47,609.39,58.41,0000 0000 0000 0000 000000
2017-01-20 00:13:25,0.39,6.23,0.00,16.16,20.24,23.68,14.91,52.52,1014.26,2054.95,1868.02,1876.58,2080.96,600.33,609.04,58.46,0000 0000 0000 0000 000000
2017-01-20 00:18:27,0.44,6.26,0.00,16.16,20.24,23.64,14.97,53.05,1014.16,2054.90,1864.16,1873.82,2077.74,600.11,608.73,58.51,0000 0000 0000 0000 000000
2017-01-20 00:23:28,0.44,6.28,0.00,16.15,20.24,23.89,14.95,52.97,1014.16,2054.90,1860.14,1870.90,2074.37,600.00,608.77,58.56,0000 0000 0000 0000 000000
2017-01-20 00:28:29,0.46,6.30,0.00,16.15,20.24,23.95,14.96,53.07,1014.13,2054.93,1856.03,1867.90,2070.90,599.86,608.75,58.61,0000 0000 0000 0000 000000
2017-01-20 00:33:30,0.43,6.32,0.00,16.12,20.24,23.97,15.00,52.82,1014.18,2054.95,1852.43,1864.93,2067.51,600.32,609.02,58.66,0000 0000 0000 0000 000000
2017-01-20 00:38:32,0.47,6.35,0.00,16.09,20.24,23.95,15.03,53.22,1014.51,2054.92,1848.09,1861.73,2063.82,600.30,609.34,58.71,0000 0000 0000 0000 000000
2017-01-20 00:43:33,0.40,6.37,0.00,16.07,20.24,23.94,15.00,53.27,1014.54,2054.95,1844.50,1859.17,2060.74,599.86,608.91,58.76,0000 0000 0000 0000 000000
2017-01-20 00:48:35,0.47,6.39,0.00,16.03,20.24,23.84,14.97,53.17,1014.38,2054.95,1840.39,1856.31,2057.29,599.96,608.95,58.81,0000 0000 0000 0000 000000
2017-01-20 00:53:36,0.41,6.41,0.00,16.00,20.24,23.90,14.94,52.80,1014.60,2054.96,1836.66,1853.71,2054.10,599.93,609.19,58.86,0000 0000 0000 0000 000000
2017-01-20 00:58:37,0.44,6.44,0.00,15.97,20.24,23.83,15.02,52.77,1014.31,2054.97,1832.74,1850.90,2050.86,599.82,608.92,58.91,0000 0000 0000 0000 000000
2017-01-20 01:03:38,0.38,6.46,0.00,15.93,20.22,23.79,15.03,52.88,1014.18,2054.98,1829.32,1848.43,2047.88,600.10,609.25,58.97,0000 0000 0000 0000 000000
2017-01-20 01:08:39,0.47,6.48,0.00,15.91,20.22,23.76,15.02,53.33,1014.11,2054.96,1825.35,1845.64,2044.86,600.20,609.32,59.02,0000 0000 0000 0000 000000
2017-01-20 01:13:41,0.43,6.50,0.00,15.91,20.21,23.77,14.98,53.33,1014.13,2054.97,1821.49,1842.59,2041.40,600.27,609.32,59.07,0000 0000 0000 0000 000000
2017-01-20 01:18:42,0.44,6.52,0.00,15.86,20.19,23.74,14.95,53.32,1013.98,2054.98,1817.83,1839.92,2038.29,600.20,609.32,59.12,0000 0000 0000 0000 000000
2017-01-20 01:23:43,0.41,6.55,0.00,15.81,20.18,23.74,14.99,53.00,1014.05,2054.99,1814.02,1837.18,2035.04,600.58,609.84,59.17,0000 0000 0000 0000 000000
2017-01-20 01:28:45,0.44,6.57,0.00,15.76,20.17,23.73,14.93,53.04,1014.15,2054.99,1810.28,1834.43,2031.95,599.79,609.29,59.22,0000 0000 0000 0000 000000
2017-01-20 01:33:46,0.39,6.59,0.00,15.73,20.15,23.69,14.97,52.93,1014.05,2054.99,1806.84,1832.00,2029.06,599.86,609.34,59.27,0000 0000 0000 0000 000000
2017-01-20 01:38:47,0.39,6.61,0.00,15.69,20.13,23.69,14.96,53.13,1014.07,2054.99,1803.24,1829.63,2026.21,600.04,609.63,59.32,0000 0000 0000 0000 000000
2017-01-20 01:43:48,0.40,6.63,0.00,15.64,20.11,23.69,15.00,53.08,1014.17,2054.99,1799.74,1827.14,2023.35,599.74,609.44,59.37,0000 0000 0000 0000 000000
2017-01-20 01:48:49,0.44,6.65,0.00,15.62,20.09,23.69,15.01,52.97,1014.21,2055.00,1796.10,1824.40,2020.27,600.06,609.70,59.42,0000 0000 0000 0000 000000
2017-01-20 01:53:51,0.42,6.67,0.00,15.60,20.07,23.67,15.02,53.28,1014.17,2055.01,1792.44,1821.79,2017.41,600.25,610.25,59.47,0000 0000 0000 0000 000000
2017-01-20 01:58:52,0.42,6.69,0.00,15.57,20.05,23.67,14.97,53.26,1014.17,2055.02,1788.84,1819.23,2014.40,599.53,609.45,59.52,0000 0000 0000 0000 000000
2017-01-20 02:03:54,0.43,6.71,0.00,15.55,20.02,23.64,14.92,53.29,1014.12,2055.04,1785.15,1816.61,2011.31,599.93,609.94,59.57,0000 0000 0000 0000 000000
2017-01-20 02:08:55,0.52,6.74,0.00,15.51,20.00,23.54,14.99,53.99,1013.72,2055.13,1780.88,1813.78,2008.13,600.07,609.74,59.62,0000 0000 0000 0000 000000
2017-01-20 02:13:56,0.71,6.77,0.00,15.48,19.98,23.51,15.02,53.92,1013.69,2055.71,1775.92,1810.09,2003.83,600.15,609.93,59.67,0000 0000 0000 0000 000000
2017-01-20 02:18:58,0.64,6.80,0.00,15.44,19.95,23.47,15.01,53.83,1013.73,2055.93,1770.64,1805.91,1999.22,599.75,609.70,59.72,0000 0000 0000 0000 000000
2017-01-20 02:23:59,0.45,6.83,0.00,15.42,19.92,23.47,14.95,53.65,1013.89,2055.97,1766.78,1802.92,1995.80,599.82,609.92,59.77,0000 0000 0000 0000 000000
2017-01-20 02:29:01,0.39,6.85,0.40,15.38,19.89,23.46,15.08,53.54,1014.04,2055.99,1763.76,1800.30,1992.97,599.96,610.22,59.82,0000 0000 0000 0000 000000
2017-01-20 02:34:02,0.44,6.87,1.00,15.33,19.87,23.48,14.99,53.38,1013.95,2055.98,1760.19,1797.82,1989.98,599.75,610.01,59.87,0000 0000 0000 0000 000000
2017-01-20 02:39:04,0.48,6.90,1.00,15.28,19.84,23.42,15.04,53.49,1013.90,2055.99,1756.10,1795.01,1986.78,599.92,610.28,59.93,0000 0000 0000 0000 000000
2017-01-20 02:44:05,0.50,6.92,1.00,15.25,19.81,23.41,15.07,53.41,1014.14,2056.00,1751.78,1791.91,1983.33,600.12,610.83,59.98,0000 0000 0000 0000 000000
2017-01-20 02:49:06,0.42,6.95,1.00,15.21,19.78,23.37,15.02,53.34,1014.16,2056.02,1748.14,1789.18,1980.14,599.82,610.62,60.03,0000 0000 0000 0000 000000
2017-01-20 02:54:07,0.44,6.97,1.00,15.18,19.75,23.35,15.05,53.38,1014.20,2056.06,1744.82,1786.72,1977.29,599.83,610.55,60.08,0000 0000 0000 0000 000000
2017-01-20 02:59:09,0.41,6.06,0.57,15.16,19.73,23.34,13.43,47.47,1014.25,2056.93,1997.84,1970.48,2192.86,536.44,546.03,0.00,0000 0000 0000 0000 000002
2017-01-20 03:04:10,0.43,0.00,0.00,15.13,19.70,23.36,14.94,50.47,1014.25,2061.01,3646.18,3166.64,3595.86,599.88,610.84,0.02,0000 0000 0000 0000 000000
2017-01-20 03:09:11,0.44,0.02,0.00,15.10,19.66,23.27,15.05,50.52,1014.36,2061.04,3633.93,3157.48,3585.32,599.87,610.98,0.07,0000 0000 0000 0000 000000
2017-01-20 03:14:13,0.46,0.04,0.00,15.07,19.63,23.22,15.00,50.35,1014.28,2061.05,3623.86,3149.93,3576.57,600.23,611.21,0.12,0000 0000 0000 0000 000000
2017-01-20 03:19:14,0.48,0.06,0.00,15.05,19.59,23.18,15.06,50.46,1014.65,2061.21,3614.08,3142.66,3568.02,599.98,611.13,0.17,0000 0000 0000 0000 000000
2017-01-20 03:24:16,0.49,0.09,0.00,15.03,19.56,23.15,14.98,50.08,1014.66,2061.54,3604.40,3135.57,3559.47,600.07,611.42,0.22,0000 0000 0000 0000 000000
2017-01-20 03:29:17,0.48,0.11,0.00,15.01,19.53,23.05,14.99,50.02,1014.73,2061.84,3594.96,3128.69,3551.32,600.10,611.56,0.27,0000 0000 0000 0000 000000
2017-01-20 03:34:18,0.42,0.13,0.00,14.99,19.50,23.05,15.06,50.08,1014.69,2061.95,3586.13,3122.21,3543.61,599.95,611.26,0.32,0000 0000 0000 0000 000000
2017-01-20 03:39:20,0.41,0.15,0.00,14.97,19.47,23.05,14.85,50.06,1014.70,2061.98,3577.46,3115.78,3536.12,599.96,611.40,0.37,0000 0000 0000 0000 000000
2017-01-20 03:44:21,0.48,0.17,0.00,14.95,19.44,22.99,15.04,49.92,1014.67,2061.99,3567.85,3108.42,3527.69,599.95,611.49,0.42,0000 0000 0000 0000 000000
2017-01-20 03:49:22,0.40,0.20,0.00,14.97,19.41,22.99,15.01,49.74,1014.45,2061.99,3558.77,3101.31,3519.59,600.05,611.42,0.47,0000 0000 0000 0000 000000
2017-01-20 03:54:24,0.42,0.22,0.00,14.96,19.39,22.97,14.92,49.81,1014.23,2061.99,3550.12,3094.84,3512.15,599.91,611.14,0.52,0000 0000 0000 0000 000000
2017-01-20 03:59:25,0.45,0.24,0.00,14.95,19.36,22.90,14.99,50.09,1014.60,2062.00,3541.00,3087.76,3503.87,600.09,611.57,0.57,0000 0000 0000 0000 000000
2017-01-20 04:04:26,0.44,0.26,0.00,14.94,19.33,22.88,14.96,50.14,1014.58,2062.00,3531.85,3080.81,3495.50,599.90,611.37,0.62,0000 0000 0000 0000 000000
2017-01-20 04:09:28,0.42,0.28,0.00,14.94,19.31,22.88,14.99,49.84,1014.37,2062.02,3522.94,3074.23,3487.65,600.09,611.58,0.67,0000 0000 0000 0000 000000
2017-01-20 04:14:29,0.43,0.30,0.00,14.94,19.28,22.81,15.10,49.77,1014.22,2062.04,3514.27,3067.78,3479.92,600.10,611.31,0.72,0000 0000 0000 0000 000000
2017-01-20 04:19:30,0.48,0.33,0.00,14.94,19.26,22.79,14.97,50.15,1014.17,2062.21,3504.92,3060.80,3471.64,599.88,611.06,0.77,0000 0000 0000 0000 000000
2017-01-20 04:24:32,0.51,0.35,0.00,14.93,19.24,22.77,15.07,50.27,1014.13,2062.46,3495.03,3053.11,3462.66,600.42,611.67,0.82,0000 0000 0000 0000 000000
2017-01-20 04:29:33,0.51,0.38,0.00,14.92,19.22,22.76,14.99,50.27,1014.00,2062.80,3485.24,3045.53,3453.81,600.08,611.21,0.87,0000 0000 0000 0000 000000
2017-01-20 04:34:35,0.51,0.41,0.00,14.92,19.19,22.72,14.98,50.49,1013.78,2062.90,3475.25,3037.62,3444.78,600.04,611.05,0.92,0000 0000 0000 0000 000000
2017-01-20 04:39:36,0.48,0.43,0.00,14.91,19.17,22.70,15.02,50.61,1013.88,2062.93,3465.59,3029.86,3435.79,600.06,611.15,0.97,0000 0000 0000 0000 000000
2017-01-20 04:44:37,0.51,0.46,0.00,14.87,19.15,22.66,15.07,50.53,1014.11,2062.96,3456.01,3022.10,3426.79,600.38,611.74,1.02,0000 0000 0000 0000 000000
2017-01-20 04:49:38,0.48,0.48,0.00,14.84,19.13,22.64,14.95,50.33,1014.14,2062.97,3446.22,3014.49,3417.81,599.80,611.31,1.07,0000 0000 0000 0000 000000
2017-01-20 04:54:39,0.44,0.50,0.00,14.79,19.12,22.63,14.99,50.42,1014.15,2062.99,3437.12,3007.52,3409.59,599.89,611.30,1.12,0000 0000 0000 0000 000000
2017-01-20 04:59:41,0.45,0.53,0.00,14.77,19.09,22.60,15.00,50.16,1014.16,2062.99,3428.32,3000.90,3401.79,599.80,611.40,1.17,0000 0000 0000 0000 000000
2017-01-20 05:04:42,0.49,0.55,0.00,14.73,19.07,22.58,15.00,50.13,1014.19,2062.99,3418.94,2993.69,3393.40,599.87,611.49,1.22,0000 0000 0000 0000 000000
2017-01-20 05:09:44,0.47,0.57,0.00,14.70,19.05,22.62,14.93,50.17,1014.20,2063.00,3409.54,2986.43,3385.00,599.73,611.51,1.27,0000 0000 0000 0000 000000
2017-01-20 05:14:45,0.42,0.60,0.00,14.65,19.03,22.57,15.07,50.00,1014.36,2063.02,3401.01,2979.97,3377.33,600.01,611.97,1.32,0000 0000 0000 0000 000000
2017-01-20 05:19:46,0.43,0.62,0.00,14.62,19.01,22.56,14.99,49.83,1014.48,2063.01,3392.45,2973.55,3369.70,599.85,611.94,1.37,0000 0000 0000 0000 000000
2017-01-20 05:24:47,0.48,0.64,0.00,14.60,18.99,22.59,15.01,49.88,1014.72,2063.03,3383.37,2966.63,3361.72,600.17,612.39,1.42,0000 0000 0000 0000 000000
2017-01-20 05:29:48,0.46,0.67,0.00,14.59,18.97,22.54,15.00,50.08,1014.72,2063.05,3374.36,2959.72,3353.51,600.10,612.44,1.47,0000 0000 0000 0000 000000
2017-01-20 05:34:50,0.46,0.69,0.00,14.57,18.94,22.54,15.06,50.01,1015.03,2063.12,3365.40,2952.96,3345.54,599.94,612.44,1.52,0000 0000 0000 0000 000000
2017-01-20 05:39:51,0.47,0.71,0.00,14.54,18.92,22.51,14.99,49.69,1015.11,2063.20,3356.52,2946.34,3337.71,600.09,612.74,1.57,0000 0000 0000 0000 000000
2017-01-20 05:44:52,0.46,0.74,0.00,14.54,18.89,22.47,15.01,49.69,1015.15,2063.33,3347.57,2939.56,3329.89,599.91,612.49,1.62,0000 0000 0000 0000 000000
2017-01-20 05:49:54,0.49,0.76,0.00,14.56,18.88,22.41,14.97,49.77,1015.51,2063.59,3338.55,2932.74,3322.06,600.18,612.93,1.67,0000 0000 0000 0000 000000
2017-01-20 05:54:55,0.48,0.79,0.00,14.55,18.85,22.42,14.99,49.63,1016.02,2063.85,3329.76,2926.11,3314.45,600.25,613.37,1.72,0000 0000 0000 0000 000000
2017-01-20 05:59:57,0.47,0.81,0.00,14.59,18.83,22.39,14.98,49.52,1015.82,2063.96,3320.84,2919.32,3306.59,599.76,612.80,1.77,0000 0000 0000 0000 000000
2017-01-20 06:04:58,0.47,0.83,0.00,14.61,18.82,22.39,15.03,49.55,1015.65,2063.97,3311.97,2912.44,3298.57,600.30,613.12,1.82,0000 0000 0000 0000 000000
2017-01-20 06:09:59,0.47,0.86,0.00,14.61,18.79,22.36,14.97,49.67,1015.67,2063.97,3302.92,2905.62,3290.60,600.31,613.27,1.87,0000 0000 0000 0000 000000
2017-01-20 06:15:00,0.46,0.88,0.00,14.64,18.78,22.31,15.02,49.69,1015.85,2063.99,3294.02,2898.90,3282.72,599.94,612.82,1.92,0000 0000 0000 0000 000000
2017-01-20 06:20:02,0.45,0.90,0.00,14.65,18.77,22.27,14.93,49.62,1015.99,2063.99,3285.44,2892.37,3275.11,599.80,612.73,1.98,0000 0000 0000 0000 000000
2017-01-20 06:25:03,0.47,0.93,0.00,14.70,18.76,22.28,15.02,49.86,1015.95,2063.99,3276.80,2885.63,3267.27,599.92,612.71,2.03,0000 0000 0000 0000 000000
2017-01-20 06:30:04,0.51,0.95,0.00,14.70,18.74,22.26,15.05,49.57,1015.97,2063.99,3267.66,2878.22,3258.79,600.38,613.08,2.08,0000 0000 0000 0000 000000
2017-01-20 06:35:05,0.49,0.98,0.00,14.73,18.74,22.23,14.99,49.76,1015.67,2063.99,3258.96,2871.14,3250.61,599.97,612.56,2.13,0000 0000 0000 0000 000000
2017-01-20 06:40:07,0.49,1.00,0.00,14.74,18.73,22.20,14.90,49.81,1015.69,2063.99,3249.82,2863.81,3242.18,599.74,612.30,2.18,0000 0000 0000 0000 000000
2017-01-20 06:45:08,0.48,1.03,0.00,14.76,18.72,22.24,14.94,49.55,1015.98,2063.99,3240.97,2857.03,3234.29,599.70,612.57,2.23,0000 0000 0000 0000 000000
2017-01-20 06:50:09,0.48,1.05,0.00,14.78,18.72,22.28,14.95,49.40,1016.31,2063.99,3232.02,2850.23,3226.38,600.10,612.93,2.28,0000 0000 0000 0000 000000
2017-01-20 06:55:11,0.47,1.08,0.00,14.81,18.72,22.29,14.99,49.24,1016.68,2063.99,3223.33,2843.67,3218.81,599.66,612.68,2.33,0000 0000 0000 0000 000000
2017-01-20 07:00:12,0.47,1.10,0.00,14.82,18.72,22.36,15.02,49.13,1017.07,2063.99,3214.55,2837.07,3211.24,600.10,613.37,2.38,0000 0000 0000 0000 000000
2017-01-20 07:05:13,0.48,1.12,0.00,14.88,18.72,22.24,15.00,49.14,1017.22,2063.99,3205.58,2830.44,3203.65,599.93,613.16,2.43,0000 0000 0000 0000 000000
2017-01-20 07:10:15,0.47,1.15,0.00,14.94,18.72,22.42,14.95,49.20,1017.60,2063.99,3196.87,2823.79,3196.11,599.92,613.26,2.48,0000 0000 0000 0000 000000
2017-01-20 07:15:16,0.48,1.17,0.00,15.01,18.73,22.45,15.01,49.61,1017.15,2063.99,3187.98,2817.28,3188.33,600.01,612.86,2.53,0000 0000 0000 0000 000000
2017-01-20 07:20:17,0.57,1.20,0.00,15.03,18.74,22.42,14.97,49.70,1016.87,2063.99,3178.64,2809.84,3179.66,599.63,612.26,2.58,0000 0000 0000 0000 000000
2017-01-20 07:25:18,0.54,1.23,0.00,15.07,18.76,22.48,15.03,49.84,1016.90,2063.98,3169.12,2801.85,3170.53,600.16,612.92,2.63,0000 0000 0000 0000 000000
2017-01-20 07:30:20,0.48,1.25,0.67,15.10,18.78,22.53,14.96,49.79,1017.18,2063.98,3160.22,2794.95,3162.57,600.05,612.77,2.68,0000 0000 0000 0000 000000
2017-01-20 07:35:21,0.50,1.28,1.00,15.13,18.80,22.54,15.00,49.72,1016.91,2063.86,3151.24,2788.00,3154.62,600.04,612.54,2.73,0000 0000 0000 0000 000000
2017-01-20 07:40:23,0.49,1.30,1.00,15.19,18.82,22.60,14.94,49.51,1017.47,2063.67,3142.25,2780.88,3146.47,599.97,612.74,2.78,0000 0000 0000 0000 000000
2017-01-20 07:45:24,0.46,1.33,1.00,15.25,18.85,22.67,14.95,49.08,1017.24,2063.20,3133.31,2773.98,3138.69,599.92,612.31,2.83,0000 0000 0000 0000 000000
2017-01-20 07:50:25,0.51,1.35,1.00,15.31,18.88,22.67,14.96,49.05,1017.08,2063.09,3124.18,2767.07,3131.05,599.89,612.11,2.88,0000 0000 0000 0000 000000
2017-01-20 07:55:26,0.53,1.38,1.00,15.39,18.91,22.71,14.98,49.29,1016.82,2063.05,3114.77,2759.97,3122.91,599.78,611.68,2.93,0000 0000 0000 0000 000000
2017-01-20 08:00:27,0.57,1.41,1.00,15.43,18.94,22.75,15.06,49.77,1016.60,2063.01,3105.03,2752.65,3114.19,600.14,611.80,2.98,0000 0000 0000 0000 000000
2017-01-20 08:05:28,0.55,1.43,1.00,15.49,18.98,22.77,15.02,49.87,1016.51,2063.00,3095.25,2745.14,3105.38,600.19,611.60,3.03,0000 0000 0000 0000 000000
2017-01-20 08:10:30,0.56,1.46,1.00,15.53,19.01,22.85,14.95,49.85,1016.21,2063.00,3085.69,2737.68,3096.73,599.97,611.27,3.08,0000 0000 0000 0000 000000
2017-01-20 08:15:31,0.57,1.49,1.00,15.57,19.05,22.91,14.93,49.67,1016.51,2062.98,3076.19,2730.05,3087.92,599.99,611.25,3.13,0000 0000 0000 0000 000000
2017-01-20 08:20:32,0.51,1.52,1.00,15.59,19.08,22.93,14.99,49.73,1016.39,2062.83,3067.26,2722.96,3079.66,600.13,611.18,3.18,0000 0000 0000 0000 000000
2017-01-20 08:25:34,0.46,1.54,1.00,15.63,19.12,22.94,14.94,49.78,1016.15,2062.31,3058.32,2716.12,3071.83,599.95,610.92,3.23,0000 0000 0000 0000 000000
2017-01-20 08:30:35,0.54,1.57,1.00,15.66,19.15,23.05,14.90,49.67,1016.12,2062.04,3049.14,2708.91,3063.64,600.20,611.08,3.28,0000 0000 0000 0000 000000
2017-01-20 08:35:37,0.55,1.59,1.00,15.68,19.19,23.08,14.98,49.95,1015.99,2062.01,3039.91,2701.71,3055.28,600.04,610.84,3.33,0000 0000 0000 0000 000000
2017-01-20 08:40:38,0.55,1.62,1.00,15.69,19.23,23.12,14.99,50.02,1015.65,2062.00,3030.70,2694.59,3047.01,600.18,610.50,3.38,0000 0000 0000 0000 000000
2017-01-20 08:45:39,0.51,1.65,1.00,15.70,19.26,23.18,14.86,49.73,1015.64,2061.99,3022.02,2687.85,3039.11,599.96,610.45,3.43,0000 0000 0000 0000 000000
2017-01-20 08:50:40,0.57,1.68,1.00,15.71,19.29,23.20,14.90,50.33,1015.53,2061.94,3012.65,2680.67,3030.82,599.97,610.58,3.48,0000 0000 0000 0000 000000
2017-01-20 08:55:42,0.60,1.71,1.00,15.71,19.33,23.24,14.97,50.09,1015.63,2061.87,3002.80,2672.78,3021.70,600.19,610.63,3.53,0000 0000 0000 0000 000000
2017-01-20 09:00:43,0.50,1.73,1.00,15.71,19.36,23.24,14.99,50.39,1015.64,2061.33,2993.61,2665.77,3013.53,599.98,610.37,3.58,0000 0000 0000 0000 000000
2017-01-20 09:05:44,0.58,1.76,1.00,15.69,19.38,23.26,14.98,50.29,1015.65,2061.07,2983.80,2658.10,3004.74,600.26,610.81,3.63,0000 0000 0000 0000 000000
2017-01-20 09:10:46,0.57,1.79,1.00,15.69,19.41,23.28,14.97,50.40,1015.66,2061.02,2974.39,2650.55,2995.90,599.83,610.37,3.68,0000 0000 0000 0000 000000
2017-01-20 09:15:47,0.56,1.82,1.00,15.68,19.44,23.29,14.99,50.27,1015.65,2061.00,2965.21,2643.45,2987.62,600.18,610.91,3.73,0000 0000 0000 0000 000000
2017-01-20 09:20:48,0.57,1.85,1.00,15.67,19.46,23.30,14.96,50.50,1015.60,2061.00,2955.96,2636.27,2979.42,600.10,610.72,3.78,0000 0000 0000 0000 000000
2017-01-20 09:25:50,0.62,1.88,1.00,15.65,19.48,23.28,14.95,50.52,1015.60,2060.99,2946.08,2628.46,2970.44,599.95,610.60,3.83,0000 0000 0000 0000 000000
2017-01-20 09:30:51,0.58,1.91,1.00,15.63,19.49,23.28,15.02,50.50,1015.64,2060.97,2936.78,2621.08,2961.80,600.19,610.77,3.88,0000 0000 0000 0000 000000
2017-01-20 09:35:53,0.54,1.94,1.00,15.62,19.51,23.31,15.02,50.46,1015.82,2060.89,2927.80,2614.14,2953.72,600.33,611.19,3.93,0000 0000 0000 0000 000000
2017-01-20 09:40:54,0.51,1.96,1.00,15.60,19.52,23.34,15.02,50.33,1016.12,2060.62,2919.15,2607.38,2945.96,599.94,610.95,3.98,0000 0000 0000 0000 000000
2017-01-20 09:45:55,0.54,1.99,1.00,15.60,19.53,23.34,15.00,50.18,1016.25,2060.15,2910.10,2600.35,2937.89,600.03,611.12,4.03,0000 0000 0000 0000 000000
2017-01-20 09:50:57,0.59,2.02,1.00,15.58,19.54,23.27,15.12,50.04,1016.62,2060.06,2901.19,2592.74,2929.37,600.43,611.82,4.08,0000 0000 0000 0000 000000
2017-01-20 09:55:58,0.52,2.05,1.00,15.59,19.54,23.06,15.01,50.00,1017.02,2060.04,2892.82,2586.28,2922.01,599.52,611.10,4.13,0000 0000 0000 0000 000000
2017-01-20 10:00:59,0.52,2.08,1.00,15.60,19.55,23.06,14.96,49.63,1017.13,2060.03,2884.54,2580.04,2914.81,600.04,611.61,4.18,0000 0000 0000 0000 000000
2017-01-20 10:06:01,0.53,2.10,1.00,15.60,19.56,23.05,14.97,49.77,1017.21,2060.01,2876.23,2573.67,2907.49,600.37,611.99,4.24,0000 0000 0000 0000 000000
2017-01-20 10:11:02,0.52,2.13,1.00,15.63,19.57,23.08,14.97,49.98,1017.10,2060.01,2867.97,2567.39,2900.19,600.19,611.72,4.29,0000 0000 0000 0000 000000
2017-01-20 10:16:03,0.60,2.15,1.00,15.66,19.57,23.20,14.94,49.88,1017.11,2060.00,2858.89,2560.34,2891.96,600.00,611.41,4.34,0000 0000 0000 0000 000000
2017-01-20 10:21:05,0.54,2.19,1.00,15.68,19.57,23.20,14.99,49.98,1017.08,2060.00,2850.31,2553.91,2884.36,600.06,611.39,4.39,0000 0000 0000 0000 000000
2017-01-20 10:26:06,0.51,2.21,1.00,15.70,19.58,23.23,15.02,50.02,1016.94,2060.00,2842.14,2547.77,2877.43,600.36,611.65,4.44,0000 0000 0000 0000 000000
2017-01-20 10:31:07,0.53,2.24,1.00,15.73,19.59,23.26,15.01,49.88,1017.03,2060.00,2834.00,2541.66,2870.37,600.20,611.55,4.49,0000 0000 0000 0000 000000
2017-01-20 10:36:08,0.54,2.27,1.00,15.77,19.59,23.31,15.01,50.23,1017.02,2060.00,2825.71,2535.41,2863.10,600.10,611.36,4.54,0000 0000 0000 0000 000000
2017-01-20 10:41:10,0.54,2.29,1.00,15.81,19.59,23.30,15.00,49.73,1017.52,2059.98,2817.35,2528.95,2855.67,600.16,611.70,4.59,0000 0000 0000 0000 000000
2017-01-20 10:46:11,0.53,2.32,1.00,15.83,19.61,23.31,14.98,49.92,1017.60,2059.98,2809.25,2522.75,2848.62,600.03,611.44,4.64,0000 0000 0000 0000 000000
2017-01-20 10:51:13,0.52,2.35,1.00,15.83,19.62,23.31,14.94,49.84,1017.61,2059.98,2801.29,2516.74,2841.69,599.99,611.47,4.69,0000 0000 0000 0000 000000
2017-01-20 10:56:14,0.52,2.37,1.00,15.88,19.63,23.35,14.97,49.67,1017.60,2059.96,2793.29,2510.70,2834.68,599.79,611.02,4.74,0000 0000 0000 0000 000000
2017-01-20 11:01:15,0.53,2.40,1.00,15.92,19.64,23.37,14.97,49.98,1017.61,2059.94,2785.34,2504.59,2827.73,599.90,611.16,4.79,0000 0000 0000 0000 000000
2017-01-20 11:06:17,0.48,2.42,1.00,15.95,19.67,23.36,14.93,49.84,1017.58,2059.60,2777.51,2498.55,2820.77,599.74,610.94,4.84,0000 0000 0000 0000 000000
2017-01-20 11:11:18,0.52,2.45,1.00,16.01,19.68,23.36,14.96,49.86,1017.52,2059.46,2769.67,2492.75,2813.91,600.07,610.82,4.89,0000 0000 0000 0000 000000
2017-01-20 11:16:19,0.48,2.47,1.00,16.05,19.70,23.40,14.93,49.81,1017.57,2059.25,2761.84,2486.92,2807.24,600.19,611.04,4.94,0000 0000 0000 0000 000000
2017-01-20 11:21:20,0.51,2.50,1.00,16.07,19.72,23.43,14.92,49.76,1017.52,2059.03,2753.99,2481.00,2800.39,600.19,610.97,4.99,0000 0000 0000 0000 000000
2017-01-20 11:26:22,0.51,2.53,1.00,16.12,19.75,23.46,15.00,49.76,1017.58,2059.02,2746.47,2475.14,2793.70,599.99,610.78,5.04,0000 0000 0000 0000 000000
2017-01-20 11:31:23,0.53,2.55,1.00,16.15,19.77,23.46,14.91,49.81,1017.35,2059.02,2738.79,2469.32,2787.02,599.96,610.53,5.09,0000 0000 0000 0000 000000
2017-01-20 11:36:24,0.51,2.58,1.00,16.20,19.79,23.51,15.07,49.98,1017.32,2059.00,2731.22,2463.50,2780.31,600.42,610.95,5.14,0000 0000 0000 0000 000000
2017-01-20 11:41:26,0.54,2.61,1.00,16.24,19.82,23.59,14.95,49.86,1017.83,2059.00,2723.54,2457.59,2773.56,599.65,610.32,5.19,0000 0000 0000 0000 000000
2017-01-20 11:46:27,0.53,2.63,1.00,16.28,19.85,23.62,14.96,49.81,1018.36,2058.99,2715.62,2451.61,2766.73,600.18,611.14,5.24,0000 0000 0000 0000 000000
2017-01-20 11:51:28,0.53,2.66,1.00,16.33,19.88,23.64,14.94,49.73,1018.71,2058.98,2708.01,2445.79,2760.06,600.17,611.18,5.29,0000 0000 0000 0000 000000
2017-01-20 11:56:29,0.53,2.69,1.00,16.37,19.91,23.69,14.92,50.22,1018.69,2058.93,2700.24,2439.91,2753.34,600.23,611.10,5.34,0000 0000 0000 0000 000000
2017-01-20 12:01:30,0.48,2.71,1.00,16.40,19.94,23.70,14.90,49.95,1018.65,2058.48,2692.40,2433.93,2746.57,599.83,610.66,5.39,0000 0000 0000 0000 000000
2017-01-20 12:06:32,0.52,2.74,1.00,16.43,19.97,23.74,15.03,50.02,1019.15,2058.08,2684.71,2427.99,2739.69,600.29,611.37,5.44,0000 0000 0000 0000 000000
2017-01-20 12:11:33,0.53,2.76,1.00,16.47,20.00,23.80,14.92,49.92,1019.58,2058.01,2677.03,2422.13,2733.01,600.02,611.34,5.49,0000 0000 0000 0000 000000
2017-01-20 12:16:34,0.54,2.79,1.00,16.51,20.03,23.81,14.88,49.81,1019.87,2058.00,2669.30,2416.28,2726.31,599.63,610.99,5.54,0000 0000 0000 0000 000000
2017-01-20 12:21:35,0.53,2.82,1.00,16.55,20.07,23.86,14.87,49.85,1019.51,2057.99,2661.61,2410.46,2719.72,599.78,610.81,5.59,0000 0000 0000 0000 000000
2017-01-20 12:26:37,0.54,2.84,1.00,16.58,20.10,23.91,14.97,49.90,1019.23,2057.97,2653.91,2404.64,2713.04,600.08,610.90,5.64,0000 0000 0000 0000 000000
2017-01-20 12:31:38,0.50,2.87,1.00,16.62,20.13,23.92,14.85,49.80,1019.09,2057.71,2646.25,2398.87,2706.43,599.82,610.50,5.69,0000 0000 0000 0000 000000
2017-01-20 12:36:39,0.50,2.90,1.00,16.67,20.17,23.96,14.96,49.52,1019.13,2057.30,2638.75,2393.17,2699.93,600.09,610.62,5.74,0000 0000 0000 0000 000000
2017-01-20 12:41:41,0.52,2.92,1.00,16.71,20.20,23.99,14.94,49.65,1019.07,2057.06,2631.13,2387.40,2693.38,599.84,610.28,5.79,0000 0000 0000 0000 000000
2017-01-20 12:46:42,0.53,2.95,1.00,16.77,20.23,24.06,14.90,49.83,1018.97,2057.00,2623.74,2381.68,2686.89,599.59,609.89,5.84,0000 0000 0000 0000 000000
2017-01-20 12:51:43,0.56,2.98,1.00,16.81,20.27,24.09,14.96,50.01,1018.67,2057.00,2616.13,2375.77,2680.12,600.29,610.27,5.89,0000 0000 0000 0000 000000
2017-01-20 12:56:44,0.53,3.00,1.00,16.84,20.31,24.10,14.90,49.84,1018.56,2056.99,2608.71,2370.08,2673.61,600.24,610.02,5.94,0000 0000 0000 0000 000000
2017-01-20 13:01:45,0.53,3.03,1.00,16.86,20.35,24.15,14.92,50.06,1018.60,2056.97,2601.32,2364.70,2667.36,599.80,609.64,5.99,0000 0000 0000 0000 000000